Weather History for Tucson, AZ

Change the Weather History Date:

Sunday, June 16, 2013

  Actual Average Record
Temperature  
Mean Temperature 92 °F 85 °F  
Max Temperature 107 °F 101 °F 109 °F (1985)
Min Temperature 76 °F 70 °F 50 °F (1962)
Degree Days  
Heating Degree Days 0 0  
Month to date heating degree days 0 0  
Since 1 June heating degree days 0 0  
Since 1 July heating degree days 1363 1511  
Cooling Degree Days 27 20  
Month to date cooling degree days 390 290  
Year to date cooling degree days 1101 792  
Since 1 June cooling degree days 390 290  
Growing Degree Days 41 (Base 50)    
Moisture  
Dew Point 40 °F    
Average Humidity 27    
Maximum Humidity 46    
Minimum Humidity 7    
Precipitation  
Precipitation 0.00 in 0.01 in 0.29 in (2012)
Month to date precipitation 0.00 0.06  
Year to date precipitation 1.74 3.13  
Snow  
Snow 0.00 in - - ()
Month to date snowfall 0.0  
Snow Depth 0.00 in    
Sea Level Pressure  
Sea Level Pressure 29.80 in    
Wind  
Wind Speed 7 mph (WSW)    
Max Wind Speed 18 mph    
Max Gust Speed 32 mph    
Visibility 10 miles    
Events      
T = Trace of Precipitation, MM = Missing Value Source: NWS Daily Summary

Daily Weather History Graph

Daily Weather History Graph

Search for Another Location

Airport:

Trip Planner

Search our weather history database for the weather conditions in past years. The results will help you decide how hot, cold, wet, or windy it might be!

Date:

Astronomy

Jun. 16, 2013 Rise Set
Actual Time 5:17 AM MST 7:32 PM MST
Civil Twilight 4:48 AM MST 8:00 PM MST
Nautical Twilight 4:14 AM MST 8:35 PM MST
Astronomical Twilight 3:36 AM MST 9:12 PM MST
Moon 12:31 PM MST (6/16) 12:01 AM MST (6/16)
Length of Visible Light 15h 11m
Length of Day
14h 15m
Waxing Crescent, 51% of the Moon is Illuminated
Jun 16
Waxing Crescent
Jun 23
Full
Jun 29
Last Quarter
Jul 8
New
Jul 15
First Quarter

Hourly Weather History & Observations

Time (MST) Temp. Heat Index Dew Point Humidity Pressure Visibility Wind Dir Wind Speed Gust Speed Precip Events Conditions
12:53 AM 82.0 °F - 51.1 °F 34% 29.81 in 10.0 mi SSE 5.8 mph - N/A   Clear
1:53 AM 80.1 °F 80.0 °F 54.0 °F 40% 29.81 in 10.0 mi SSE 9.2 mph - N/A   Clear
2:53 AM 79.0 °F - 53.1 °F 40% 29.81 in 10.0 mi South 6.9 mph - N/A   Clear
3:53 AM 77.0 °F - 52.0 °F 42% 29.82 in 10.0 mi Calm Calm - N/A   Clear
4:53 AM 75.9 °F - 54.0 °F 46% 29.82 in 10.0 mi East 4.6 mph - N/A   Clear
5:53 AM 77.0 °F - 53.1 °F 43% 29.83 in 10.0 mi ESE 6.9 mph - N/A   Clear
6:53 AM 81.0 °F - 46.9 °F 30% 29.84 in 10.0 mi SSE 9.2 mph - N/A   Clear
7:53 AM 86.0 °F - 48.0 °F 27% 29.85 in 10.0 mi SE 5.8 mph - N/A   Clear
8:53 AM 91.0 °F - 46.9 °F 22% 29.86 in 10.0 mi Calm Calm - N/A   Clear
9:53 AM 93.9 °F - 43.0 °F 17% 29.85 in 10.0 mi NNW 6.9 mph - N/A   Clear
10:53 AM 97.0 °F - 44.1 °F 16% 29.84 in 10.0 mi North 5.8 mph - N/A   Clear
11:53 AM 98.1 °F - 45.0 °F 16% 29.83 in 10.0 mi NW 3.5 mph - N/A   Clear
12:53 PM 99.0 °F - 45.0 °F 16% 29.80 in 10.0 mi Variable 4.6 mph - N/A   Clear
1:53 PM 102.9 °F - 44.1 °F 14% 29.77 in 10.0 mi Variable 6.9 mph - N/A   Clear
2:53 PM 104.0 °F - 41.0 °F 12% 29.75 in 10.0 mi Variable 5.8 mph 17.3 mph N/A   Clear
3:53 PM 105.1 °F - 36.0 °F 9% 29.73 in 10.0 mi WSW 15.0 mph - N/A   Clear
4:37 PM 105.1 °F - 34.0 °F 9% 29.89 in 10.0 mi West 13.8 mph - N/A   Clear
4:53 PM 105.1 °F - 33.1 °F 8% 29.72 in 10.0 mi West 12.7 mph 23.0 mph N/A   Clear
5:53 PM 102.9 °F - 28.0 °F 7% 29.72 in 10.0 mi WNW 11.5 mph 19.6 mph N/A   Clear
6:53 PM 100.0 °F - 25.0 °F 7% 29.73 in 10.0 mi West 13.8 mph 19.6 mph N/A   Clear
7:53 PM 97.0 °F - 26.1 °F 8% 29.75 in 10.0 mi West 9.2 mph - N/A   Clear
8:53 PM 93.0 °F - 27.0 °F 9% 29.77 in 10.0 mi WNW 5.8 mph - N/A   Clear
9:53 PM 90.0 °F - 26.1 °F 10% 29.79 in 10.0 mi West 8.1 mph - N/A   Clear
10:53 PM 89.1 °F - 26.1 °F 10% 29.81 in 10.0 mi West 10.4 mph - N/A   Clear
11:53 PM 84.0 °F - 28.0 °F 13% 29.82 in 10.0 mi SW 4.6 mph - N/A   Clear